Location: Ladrillo (historical)
(32.8195°N, 117.2231°W)
Time: 03:17:11
(UTC+00:00)

DELTA 2 R/B (1) - Pass Details

Date: 29 October 2020
Orbit: 790 x 803 km, 39.6° (Epoch: 26 November)

Event Time Altitude Azimuth Distance (km) Brightness Sun altitude
Exits shadow 12:19:30 49° 244° (WSW) 1,017 3.7 -22.6°
Maximum altitude 12:20:20 54° 212° (SSW) 960 3.8 -22.4°
Drops below altitude 10° 12:25:46 10° 135° (SE) 2,364 6.7 -21.3°
Sets 12:28:18 0° 131° (SE) 3,293 7.6 -20.8°
